[TLELIST] Archives

 

[list_settings.list_name] Current TLEs

July 10th 2022 PST

HST 1 20580U 90037B 22190.61802024 .00001721 00000-0 90662-4 0 9999 2 20580 28.4709 21.9284 0002343 275.1806 121.5583 15.10642915569575 ISS (ZARYA) 1 25544U 98067A 22191.15751339 .00005534 00000-0 10529-3 0 9996 2 25544 51.6428 222.8240 0004765 353.1244 111.7704 15.49885353348740 CXO 1 25867U 99040B 22191.84994190 .00000392 00000-0 00000+0 0 9992 2 25867 44.6476 233.1807 8840091 235.3314 0.4871 0.37807971 23047 ____________________________________________________________________ These 2-Line ...Continue Reading

[list_settings.list_name] Current TLEs

July 9th 2022 PST

HST 1 20580U 90037B 22190.24507226 .00001683 00000-0 88407-4 0 9995 2 20580 28.4709 24.3999 0002345 270.9965 253.5095 15.10641554569781 ISS (ZARYA) 1 25544U 98067A 22190.44327322 .00070670 00000-0 12390-2 0 9998 2 25544 51.6421 226.3571 0004474 346.9769 90.1419 15.49906581348636 CXO 1 25867U 99040B 22191.84994190 .00000392 00000-0 00000+0 0 9992 2 25867 44.6476 233.1807 8840091 235.3314 0.4871 0.37807971 23047 ____________________________________________________________________ These 2-Line ...Continue Reading

[list_settings.list_name] Current TLEs

July 8th 2022 PST

HST 1 20580U 90037B 22188.98121898 .00001673 00000-0 87814-4 0 9990 2 20580 28.4709 32.7750 0002349 256.0259 221.6237 15.10637736569583 ISS (ZARYA) 1 25544U 98067A 22189.36568287 .00004076 00000-0 79757-4 0 9993 2 25544 51.6430 231.6973 0004469 347.5206 193.1668 15.49858162348460 CXO 1 25867U 99040B 22191.84994190 .00000392 00000-0 00000+0 0 9992 2 25867 44.6476 233.1807 8840091 235.3314 0.4871 0.37807971 23047 ____________________________________________________________________ These 2-Line ...Continue Reading

[list_settings.list_name] Current TLEs

July 7th 2022 PST

HST 1 20580U 90037B 22187.90647824 .00001474 00000-0 76086-4 0 9991 2 20580 28.4709 39.8968 0002366 243.5809 137.7229 15.10633951569429 ISS (ZARYA) 1 25544U 98067A 22187.91168981 .00005281 00000-0 10097-3 0 9999 2 25544 51.6429 238.9000 0004438 341.2767 1.5583 15.49849532348232 CXO 1 25867U 99040B 22189.20483839 .00000444 00000-0 00000-0 0 9991 2 25867 44.7175 233.3699 8839811 235.2396 0.2976 0.37814921 11877 ____________________________________________________________________ These 2-Line ...Continue Reading

[list_settings.list_name] Current TLEs

July 6th 2022 PST

HST 1 20580U 90037B 22186.85814003 .00001422 00000-0 73062-4 0 9993 2 20580 28.4709 46.8436 0002391 231.5066 197.3327 15.10631186569000 ISS (ZARYA) 1 25544U 98067A 22187.35288569 .00005588 00000-0 10639-3 0 9994 2 25544 51.6429 241.6676 0004427 338.8725 124.0884 15.49844317348158 CXO 1 25867U 99040B 22189.20483839 .00000444 00000-0 00000-0 0 9991 2 25867 44.7175 233.3699 8839811 235.2396 0.2976 0.37814921 11877 ____________________________________________________________________ These 2-Line ...Continue Reading

[list_settings.list_name] Current TLEs

July 5th 2022 PST

HST 1 20580U 90037B 22185.92444741 .00001304 00000-0 66099-4 0 9999 2 20580 28.4708 53.0307 0002418 221.0304 160.0636 15.10628383568863 ISS (ZARYA) 1 25544U 98067A 22186.19254402 .00006121 00000-0 11581-3 0 9995 2 25544 51.6425 247.4146 0004458 333.6196 131.0442 15.49832392347976 CXO 1 25867U 99040B 22186.55934770 .00000505 00000-0 00000-0 0 9999 2 25867 44.8161 233.6338 8840809 235.0782 0.1461 0.37815349 11864 ____________________________________________________________________ These 2-Line ...Continue Reading

[list_settings.list_name] Current TLEs

July 4th 2022 PST

HST 1 20580U 90037B 22185.08468380 .00001219 00000-0 61112-4 0 9997 2 20580 28.4707 58.5955 0002441 211.6486 273.5321 15.10626092569006 ISS (ZARYA) 1 25544U 98067A 22185.43189815 .00006146 00000-0 11628-3 0 9995 2 25544 51.6429 251.1821 0004421 330.5365 207.3929 15.49822456347850 CXO 1 25867U 99040B 22186.55934770 .00000505 00000-0 00000-0 0 9999 2 25867 44.8161 233.6338 8840809 235.0782 0.1461 0.37815349 11864 ____________________________________________________________________ These 2-Line ...Continue Reading

[list_settings.list_name] Current TLEs

July 3rd 2022 PST

HST 1 20580U 90037B 22183.95908525 .00001156 00000-0 57375-4 0 9997 2 20580 28.4706 66.0541 0002488 199.1061 272.6426 15.10623356568825 ISS (ZARYA) 1 25544U 98067A 22184.32460500 .00005934 00000-0 11261-3 0 9992 2 25544 51.6431 256.6653 0004465 326.5711 149.3182 15.49807134347687 CXO 1 25867U 99040B 22186.55934770 .00000505 00000-0 00000-0 0 9999 2 25867 44.8161 233.6338 8840809 235.0782 0.1461 0.37815349 11864 ____________________________________________________________________ These 2-Line ...Continue Reading

[list_settings.list_name] Current TLEs

July 2nd 2022 PST

HST 1 20580U 90037B 22182.45030291 .00001114 00000-0 54902-4 0 9994 2 20580 28.4705 76.0519 0002538 182.7018 347.6453 15.10619730568336 ISS (ZARYA) 1 25544U 98067A 22183.35784705 .00005912 00000-0 11228-3 0 9999 2 25544 51.6437 261.4536 0004438 323.4159 155.0900 15.49794283347535 CXO 1 25867U 99040B 22183.91425217 .00000480 00000-0 00000-0 0 9999 2 25867 44.9132 233.8920 8839625 234.9074 0.1024 0.37810843 11867 ____________________________________________________________________ These 2-Line ...Continue Reading

[list_settings.list_name] Current TLEs

July 1st 2022 PST

HST 1 20580U 90037B 22181.18775999 .00001143 00000-0 56594-4 0 9995 2 20580 28.4702 84.4181 0002593 169.1822 321.5441 15.10616889568413 ISS (ZARYA) 1 25544U 98067A 22182.38540126 .00005274 00000-0 10109-3 0 9996 2 25544 51.6430 266.2710 0004453 318.6475 130.7678 15.49780453347388 CXO 1 25867U 99040B 22183.91425217 .00000480 00000-0 00000-0 0 9999 2 25867 44.9132 233.8920 8839625 234.9074 0.1024 0.37810843 11867 ____________________________________________________________________ These 2-Line ...Continue Reading
  • This mailing list is a public mailing list - anyone may join or leave, at any time.
  • This mailing list is announce-only.

International Space Station (ISS) / Hubble Space Telescope (HST) / Chandra X-Ray Observatory Orbital Data via EMAIL

Privacy Policy:

Private list